Regional Weather Roundup
Issued by NWS

Home | Current Version | Previous Version | Text Only | Print | Product List | Glossary On
Versions: 1 2 3 4 5 6 7 8 9 10 11 12 13 14 15 16 17 18 19 20 21 22 23 24 25 26 27 28 29 30 31 32 33 34 35 36 37 38 39 40 41 42 43 44 45 46 47 48 49 50
000
ASUS43 KIND 291059
RWRIN

WEATHER ROUNDUP FOR INDIANA
NATIONAL WEATHER SERVICE INDIANAPOLIS IN
700 AM EDT TUE JUL 29 2014

NOTE: "FAIR" INDICATES FEW OR NO CLOUDS BELOW 12,000 FEET WITH NO
SIGNIFICANT WEATHER AND/OR OBSTRUCTIONS TO VISIBILITY.

* - STATION DOES NOT REPORT WEATHER SUCH AS PRECIPITATION OR FOG.

+ - STATION NOT QUALITY CONTROLLED BY THE NATIONAL WEATHER SERVICE.
    USE DATA WITH CAUTION...ESPECIALLY DEWPOINT AND RELATIVE
    HUMIDITY OBSERVATIONS.

INZ001>003-010>013-019-020-291200-
NORTHWEST INDIANA

CITY           SKY/WX    TMP DP  RH WIND       PRES   REMARKS
KNOX *+        CLEAR     47  45  93 CALM      30.03F
MONTICELLO +   CLEAR     50  50  98 CALM      30.05S
RENSSELAER +   CLEAR     50  50 100 SW3       30.06S
VALPARAISO     CLEAR     52  49  89 SW3       30.05S

$$

LMZ046-743>745-291200-
SOUTHERN LAKE MICHIGAN

STATION/POSITION TIME  TEMP WIND        PRES
                       AIR  DIR/SP/G
                 (UTC) (F)  (DEG/KT/KT) (MB)
MICHIGAN CITY    1000   58  170/  6/  7   N/A

$$

INZ004-005-014>016-021>024-291200-
NORTH CENTRAL INDIANA

CITY           SKY/WX    TMP DP  RH WIND       PRES   REMARKS
ELKHART        PTCLDY    48  48 100 CALM      30.04
GOSHEN         CLEAR     49  47  93 S3        30.04S
SOUTH BEND     CLEAR     51  48  89 S3        30.04R
WARSAW +       CLEAR     46  45  93 CALM      30.05R

$$

INZ006>009-017-018-025>027-291200-
NORTHEAST INDIANA

CITY           SKY/WX    TMP DP  RH WIND       PRES   REMARKS
ANGOLA *+      CLEAR     46  46 100 CALM      30.04R
AUBURN +       CLEAR     48  46  93 CALM      30.04F
FORT WAYNE     CLEAR     48  46  93 SW5       30.06R

$$

INZ028-029-035-036-043>045-051>053-291200-
WEST CENTRAL INDIANA

CITY           SKY/WX    TMP DP  RH WIND       PRES   REMARKS
GREENCASTLE +  CLOUDY    54  52  94 CALM      30.08S
LAFAYETTE      CLEAR     51  50  96 CALM      30.06R
TERRE HAUTE    PTCLDY    53  50  89 SW3       30.08S

$$

INZ030>032-037>040-046>048-054>057-064-065-291200-
CENTRAL INDIANA

CITY           SKY/WX    TMP DP  RH WIND       PRES   REMARKS
COLUMBUS       MOCLDY    50  50 100 CALM      30.06
INDIANAPOLIS   CLOUDY    55  50  83 W5        30.06R
-EAGLE CREEK   MOCLDY    56  49  77 CALM      30.06R
KOKOMO *+      CLEAR     52  48  87 W3        30.06S
MT COMFORT *+  CLEAR     50 N/A N/A CALM      30.07R
SHELBYVILLE    CLEAR     53  49  86 CALM      30.05S
ZIONSVILLE +   CLEAR     54  49  83 CALM      30.07S

$$

INZ033-034-041-042-049-050-058-059-291200-
EAST CENTRAL INDIANA

CITY           SKY/WX    TMP DP  RH WIND       PRES   REMARKS
MUNCIE         CLEAR     49  47  93 CALM      30.06R

$$

INZ060-061-067>069-081>083-085>088-291200-
SOUTHWEST INDIANA

CITY           SKY/WX    TMP DP  RH WIND       PRES   REMARKS
EVANSVILLE     CLEAR     58  50  75 NW7       30.11R

$$

INZ062-063-066-070>080-084-089>092-291200-
SOUTH CENTRAL AND SOUTHEAST INDIANA

CITY           SKY/WX    TMP DP  RH WIND       PRES   REMARKS
BLOOMINGTON    MOCLDY    54  49  83 CALM      30.08R
SEYMOUR +      CLEAR     48  39  71 NW5       30.06

$$




USA.gov is the U.S. government's official web portal to all federal, state and local government web resources and services.